STARLINK-32314, 61709

Orbit data source: Space-Track

STARLINK-32314, 61709 is a payload satellite owned by SpaceX/Seattle (US) in LEO that was launched on Wed, 30 Oct 2024 UTC via an FALCON 9 launch vehicle from the Air Force Eastern Test Range (AFETR). Payloads include a variety of satellites, spacecraft, and rockets equipped with specific instruments for various scientific and technological missions. These include communications satellites like Starlink; space stations such as the ISS; scientific satellites like the Hubble; Earth observation satellites from companies like Planet Labs, Umbra, and HawkEye 360; GPS; miniature CubeSats for education and research; and military/defense satellites.

Loading next visibility...
STARLINK-32314 details
Identifier
61709, 2024-196C
Orbit
LEO
Last TLE update16 hours ago
Origin
Flag of USSpaceX/Seattle (US)
ManufacturerSpaceX/Seattle
MissionOperational spacecraft
Bus & MotorSTARLINK V2M, Unknown motor
Mass730 kg wet, ~700 kg dry
Launch date (UTC)
2024-10-30 (3 months ago)
Launch vehicle
FALCON 9
Launch site
Air Force Eastern Test Range (AFETR)
Object type
Payload
Rocket body
Debris
Shape & HBRUnknown
Radar Cross SectionLarge (>1 m²)

Expand to show TLE details & history

TLE from 16 hours ago
0 STARLINK-32314
1 61709U 24196C   25023.88326725  .00001312  00000-0  42780-4 0  9990
2 61709  53.1586 204.8296 0000864 104.0678 256.0423 15.39616595 14410
Epoch: 2025-01-23T21:11Z
Definitive object data (Epoch: 2025-01-23T21:11:54.29Z)
Latitude-0.00001°
Longitude123.39898°
Altitude448.288 km
Speed7.644 km/s
True Right ascension13h 39m 19s
True Declination0° 00' 00"
Sunlit
Object was in daylight at TLE epoch
Visualization TLE readout
Latitude52.07357°
Longitude-166.75444°
Altitude452.997 km
Speed7.647 km/s
Apparent Right ascension22h 51m 40s
Apparent Declination15° 59' 54"
Sunlit
Object is in daylight
Visualization observer readout
Local Sidereal Time14:23:16
Azimuth52.73° ENE
Elevation-15.537°
Doppler factor1
Orbital elements
Apogee altitude448.09 km
Perigee altitude446.91 km
Semi-major axis6,825.637 km
Eccentricity0.0000864
Inclination53.1586°
RAAN204.8296°
Arg. of periapsis104.0678°
True anomaly256.03269°
Mean anomaly256.0423°
Eccentric anomaly256.0375°
Mean motion3.84883 °/min
BSTAR0.00004278
Orbital period93.53 mins
Loading maneuver chart data...
Loading historical data...
Loading historical data...
Loading historical data...
Loading historical data...
Loading historical data...
Loading historical data...
Loading historical data...

STARLINK-32314 Visibility forecast

Observer location: undefined°, undefined

Span
Click to sort rows by Start time (UTC) header in descending order
Start Az.
Max El. time (UTC)
Max El. Az.
Max El.
End time (UTC)
End Az.
6 mins2025-01-24 14:30:19.073Z221.055° SW2025-01-24 14:33:19.073Z170.518° S42.681°2025-01-24 14:36:19.073Z55.374° ENE
5 mins2025-01-24 21:04:19.073Z327.951° NNW2025-01-24 21:06:19.073Z56.104° ENE38.775°2025-01-24 21:09:19.073Z115.297° SE
|